Location: *
(52.2090°N, 4.1550°W)
Time: 12:58:20
(UTC+00:00)

Cosmos 1500 Rocket - Pass Details

Date: 20 October 2019
Orbit: 603 x 631 km, 82.5° (Epoch: 14 November)

Event Time Altitude Azimuth Distance (km) Brightness Sun altitude
Rises 21:47:18 0° 338° (NNW) 2,938 7.8 -40.2°
Reaches altitude 10° 21:50:00 10° 322° (NW) 2,024 6.8 -40.5°
Enters shadow 21:50:03 10° 322° (NW) 2,007 6.8 -40.5°
